Location: Falniów
(50.3639°N, 19.9642°E)
Time: 13:11:51
(UTC+00:00)

Cosmos 2082 Rocket - Pass Details

Date: 27 April 2026
Orbit: 831 x 853 km, 71.0° (Epoch: 19 May)

Event Time Altitude Azimuth Distance (km) Brightness Sun altitude
Exits shadow 01:27:16 - 280° (W) 3,025 4.8 -15.9°
Reaches altitude 10° 01:29:28 10° 295° (WNW) 2,490 4.5 -15.7°
Maximum altitude 01:32:46 15° 331° (NNW) 2,127 4.5 -15.3°
Drops below altitude 10° 01:36:05 10° 7° (N) 2,493 5.4 -14.9°
Sets 01:39:41 0° 29° (NNE) 3,429 6.9 -14.5°
